When you browse on this site, cookies collect data to enhance your experience and personalize the content and advertising you see.
Visit our Privacy Policy to learn more. By continuing to use the site, you agree to this use of cookies and data.

Hourly Weather Salzburg

Today, 13 August, Thursday

Time Temperature Precipitation Wind Pressure Humidity
00:00 +12°C° 0 mm 2 mps 629 mmHg 89%
01:00 +12°C° 0 mm 2 mps 629 mmHg 88%
02:00 +12°C° 0 mm 2 mps 629 mmHg 87%
03:00 +12°C° 0 mm 2 mps 629 mmHg 86%
04:00 +12°C° 0 mm 1 mps 628 mmHg 85%
05:00 +13°C° 0.1 mm 1 mps 629 mmHg 84%
06:00 +14°C° 0.1 mm 1 mps 629 mmHg 83%
07:00 +15°C° 0.1 mm 1 mps 630 mmHg 82%
08:00 +18°C° 0 mm 1 mps 630 mmHg 73%
09:00 +19°C° 0 mm 0 mps 631 mmHg 64%
10:00 +21°C° 0 mm 0 mps 632 mmHg 55%
11:00 +23°C° 0.4 mm 1 mps 631 mmHg 57%
12:00 +23°C° 0.4 mm 1 mps 631 mmHg 60%
13:00 +21°C° 0.4 mm 2 mps 631 mmHg 63%
14:00 +20°C° 3.1 mm 1 mps 630 mmHg 73%
15:00 +18°C° 3.1 mm 1 mps 629 mmHg 83%
16:00 +15°C° 3.1 mm 1 mps 628 mmHg 93%
17:00 +15°C° 0.6 mm 1 mps 628 mmHg 93%
18:00 +14°C° 0.6 mm 1 mps 628 mmHg 93%
19:00 +13°C° 0.6 mm 0 mps 628 mmHg 93%
20:00 +13°C° 0.1 mm 1 mps 628 mmHg 93%
21:00 +13°C° 0.1 mm 1 mps 628 mmHg 93%
22:00 +13°C° 0.1 mm 1 mps 628 mmHg 93%
23:00 +12°C° 0.1 mm 1 mps 628 mmHg 93%

Tomorrow, 14 August, Friday

Time Temperature Precipitation Wind Pressure Humidity
00:00 +12°C° 0.1 mm 1 mps 628 mmHg 93%
01:00 +12°C° 0.1 mm 1 mps 628 mmHg 93%
02:00 +12°C° 0.1 mm 1 mps 628 mmHg 93%
03:00 +12°C° 0.1 mm 1 mps 628 mmHg 93%
04:00 +12°C° 0.1 mm 1 mps 627 mmHg 93%
05:00 +12°C° 0 mm 1 mps 628 mmHg 92%
06:00 +13°C° 0 mm 1 mps 628 mmHg 91%
07:00 +12°C° 0 mm 0 mps 628 mmHg 91%
08:00 +13°C° 0.5 mm 0 mps 628 mmHg 90%
09:00 +15°C° 0.5 mm 1 mps 628 mmHg 90%
10:00 +15°C° 0.5 mm 1 mps 629 mmHg 89%
11:00 +15°C° 0.6 mm 1 mps 628 mmHg 90%
12:00 +15°C° 0.6 mm 1 mps 628 mmHg 90%
13:00 +15°C° 0.6 mm 1 mps 628 mmHg 90%
14:00 +15°C° 0.7 mm 1 mps 628 mmHg 90%
15:00 +15°C° 0.7 mm 1 mps 628 mmHg 91%
16:00 +14°C° 0.7 mm 1 mps 628 mmHg 91%
17:00 +14°C° 0.7 mm 1 mps 628 mmHg 92%
18:00 +13°C° 0.7 mm 1 mps 627 mmHg 93%
19:00 +12°C° 0.7 mm 1 mps 627 mmHg 94%
20:00 +12°C° 0.2 mm 1 mps 627 mmHg 94%
21:00 +12°C° 0.2 mm 1 mps 627 mmHg 94%
22:00 +12°C° 0.2 mm 1 mps 628 mmHg 94%
23:00 +12°C° 0 mm 1 mps 628 mmHg 93%

Day after tomorrow, 15 August, Saturday

Time Temperature Precipitation Wind Pressure Humidity
00:00 +11°C° 0 mm 1 mps 628 mmHg 93%
01:00 +11°C° 0 mm 1 mps 628 mmHg 92%
02:00 +11°C° 0 mm 1 mps 627 mmHg 91%
03:00 +11°C° 0 mm 1 mps 627 mmHg 91%
04:00 +10°C° 0 mm 0 mps 627 mmHg 91%
05:00 +11°C° 0 mm 0 mps 628 mmHg 90%
06:00 +11°C° 0 mm 0 mps 628 mmHg 89%
07:00 +12°C° 0 mm 0 mps 628 mmHg 88%
08:00 +14°C° 0 mm 0 mps 629 mmHg 80%
09:00 +15°C° 0 mm 0 mps 629 mmHg 72%
10:00 +19°C° 0 mm 1 mps 630 mmHg 64%
11:00 +20°C° 0.1 mm 1 mps 630 mmHg 61%
12:00 +21°C° 0.1 mm 1 mps 630 mmHg 58%
13:00 +21°C° 0.1 mm 1 mps 630 mmHg 55%
14:00 +20°C° 0.2 mm 2 mps 630 mmHg 59%
15:00 +19°C° 0.2 mm 2 mps 629 mmHg 62%
16:00 +19°C° 0.2 mm 2 mps 629 mmHg 65%
17:00 +18°C° 0.3 mm 1 mps 628 mmHg 74%
18:00 +15°C° 0.3 mm 1 mps 628 mmHg 83%
19:00 +13°C° 0.3 mm 0 mps 627 mmHg 92%
20:00 +12°C° 0.2 mm 0 mps 627 mmHg 92%
21:00 +12°C° 0.2 mm 1 mps 627 mmHg 92%
22:00 +11°C° 0.2 mm 1 mps 627 mmHg 92%
23:00 +11°C° 0 mm 1 mps 627 mmHg 92%

16 August, Sunday

Time Temperature Precipitation Wind Pressure Humidity
00:00 +10°C° 0 mm 1 mps 626 mmHg 91%
01:00 +10°C° 0 mm 1 mps 626 mmHg 91%
02:00 +10°C° 0 mm 1 mps 626 mmHg 91%
03:00 +10°C° 0 mm 1 mps 626 mmHg 91%
04:00 +10°C° 0 mm 1 mps 626 mmHg 91%
05:00 +11°C° 0 mm 1 mps 626 mmHg 89%
06:00 +12°C° 0 mm 1 mps 627 mmHg 87%
07:00 +13°C° 0 mm 1 mps 627 mmHg 85%
08:00 +16°C° 0 mm 1 mps 628 mmHg 74%
09:00 +19°C° 0 mm 1 mps 629 mmHg 64%
10:00 +22°C° 0 mm 1 mps 630 mmHg 53%
11:00 +22°C° 0 mm 1 mps 630 mmHg 49%
12:00 +23°C° 0 mm 1 mps 630 mmHg 46%
13:00 +23°C° 0 mm 2 mps 630 mmHg 42%
14:00 +23°C° 0.2 mm 2 mps 630 mmHg 48%
15:00 +21°C° 0.2 mm 2 mps 629 mmHg 54%
16:00 +20°C° 0.2 mm 2 mps 629 mmHg 60%
17:00 +19°C° 0.6 mm 1 mps 628 mmHg 68%
18:00 +16°C° 0.6 mm 1 mps 628 mmHg 77%
19:00 +13°C° 0.6 mm 0 mps 627 mmHg 86%
20:00 +13°C° 0.3 mm 0 mps 627 mmHg 85%
21:00 +13°C° 0.3 mm 1 mps 627 mmHg 85%
22:00 +13°C° 0.3 mm 1 mps 627 mmHg 84%
23:00 +12°C° 0 mm 1 mps 626 mmHg 85%

17 August, Monday

Time Temperature Precipitation Wind Pressure Humidity
00:00 +12°C° 0 mm 1 mps 626 mmHg 86%
01:00 +11°C° 0 mm 1 mps 626 mmHg 86%
02:00 +11°C° 0 mm 1 mps 626 mmHg 86%
03:00 +11°C° 0 mm 1 mps 626 mmHg 86%
04:00 +11°C° 0 mm 1 mps 625 mmHg 86%
05:00 +12°C° 0 mm 1 mps 626 mmHg 85%
06:00 +13°C° 0 mm 1 mps 626 mmHg 83%
07:00 +14°C° 0 mm 1 mps 626 mmHg 82%
08:00 +18°C° 0 mm 1 mps 627 mmHg 71%
09:00 +20°C° 0 mm 1 mps 628 mmHg 60%
10:00 +21°C° 0 mm 0 mps 629 mmHg 49%
11:00 +23°C° 0.2 mm 1 mps 628 mmHg 51%
12:00 +22°C° 0.2 mm 1 mps 628 mmHg 53%
13:00 +21°C° 0.2 mm 2 mps 628 mmHg 55%
14:00 +18°C° 4.3 mm 2 mps 626 mmHg 68%
15:00 +16°C° 4.3 mm 2 mps 625 mmHg 81%
16:00 +13°C° 4.3 mm 2 mps 624 mmHg 94%
17:00 +12°C° 1.4 mm 1 mps 624 mmHg 95%
18:00 +12°C° 1.4 mm 1 mps 624 mmHg 96%
19:00 +11°C° 1.4 mm 1 mps 624 mmHg 97%
20:00 +11°C° 1.7 mm 1 mps 625 mmHg 98%
21:00 +11°C° 1.7 mm 1 mps 625 mmHg 98%
22:00 +11°C° 1.7 mm 1 mps 625 mmHg 99%
23:00 +11°C° 0.5 mm 1 mps 625 mmHg 99%

18 August, Tuesday

Time Temperature Precipitation Wind Pressure Humidity
00:00 +11°C° 0.5 mm 1 mps 625 mmHg 98%
01:00 +11°C° 0.5 mm 1 mps 625 mmHg 98%
02:00 +10°C° 0.5 mm 1 mps 625 mmHg 98%
03:00 +10°C° 0.5 mm 1 mps 625 mmHg 98%
04:00 +10°C° 0.5 mm 1 mps 625 mmHg 98%
05:00 +10°C° 0.5 mm 1 mps 625 mmHg 97%
06:00 +10°C° 0.5 mm 1 mps 626 mmHg 96%
07:00 +11°C° 0.5 mm 1 mps 626 mmHg 95%
08:00 +12°C° 0.2 mm 1 mps 626 mmHg 89%
09:00 +13°C° 0.2 mm 1 mps 627 mmHg 83%
10:00 +14°C° 0.2 mm 1 mps 627 mmHg 77%
11:00 +15°C° 0.2 mm 1 mps 627 mmHg 71%
12:00 +16°C° 0.2 mm 2 mps 627 mmHg 65%
13:00 +17°C° 0.2 mm 2 mps 627 mmHg 60%
14:00 +17°C° 0.1 mm 2 mps 627 mmHg 60%
15:00 +17°C° 0.1 mm 2 mps 627 mmHg 61%
16:00 +16°C° 0.1 mm 2 mps 627 mmHg 61%
17:00 +15°C° 0.1 mm 1 mps 626 mmHg 71%
18:00 +13°C° 0.1 mm 1 mps 626 mmHg 81%
19:00 +11°C° 0.1 mm 1 mps 625 mmHg 91%
20:00 +10°C° 0 mm 1 mps 626 mmHg 91%
21:00 +10°C° 0 mm 1 mps 626 mmHg 92%
22:00 +9°C° 0 mm 1 mps 626 mmHg 93%
23:00 +9°C° 0 mm 1 mps 626 mmHg 93%
Show more